Flag for Canada Weather past 2 weeks in Abbotsford, British Columbia, Canada

Now
39 °F

Passing clouds.


Feels Like: 39 °F
Forecast: 31 / 51 °F
Wind: No wind

Location: Abbotsford

Current Time: Feb 28, 2015 at 9:08:38 PM

Latest Report: Feb 28, 2015 at 8:00 PM


Visibility: 15 mi

Pressure: 30.22 "Hg

Humidity: 52%

Dew point: 23 °F

Location of AbbotsfordLocation

Historic Weather in Abbotsford — Graph

°F

Abbotsford temperature yesterday

Maximum temperature yesterday: 54 °F (at 12:00 PM)
Minimum temperature yesterday: 43 °F (at 2:00 AM)
Average temperature yesterday: 48 °F

Past Weeks' High & Low Weather Summary

 TemperatureHumidityPressure
High59 °F (Feb 17, 1:00 PM)100% (Feb 13, 8:00 PM)30.52 "Hg (Feb 13, 8:00 PM)
Low30 °F (Feb 23, 3:00 AM)18% (Feb 28, 4:00 PM)29.78 "Hg (Feb 27, 6:00 AM)
Average45 °F74%30.28 "Hg
* Reported Feb 13 8:00 PM — Feb 28 8:00 PM, Abbotsford, Weather by CustomWeather, © 2015

Note: Actual official high and low records may vary slightly from our data, if they occured in-between our weather recording intervals... More about our weather records

Advertising

Abbotsford weather history for previous 24 hours

 ConditionsComfort  
Time TempWeatherWind HumidityBarometerVisibility
8:00 PM
Sat, Feb 28
39 °FPassing clouds.No wind52%30.22 "Hg15 mi
7:00 PM46 °FClear.2 mph40%30.22 "Hg15 mi
6:00 PM48 °FPassing clouds.3 mph34%30.20 "Hg30 mi
5:00 PM55 °FPassing clouds.5 mph21%30.19 "Hg30 mi
4:00 PM55 °FPassing clouds.12 mph18%30.19 "Hg30 mi
3:00 PM55 °FSunny.15 mph21%30.19 "Hg30 mi
2:00 PM55 °FSunny.15 mph21%30.20 "Hg30 mi
1:00 PM55 °FSunny.16 mph19%30.22 "Hg30 mi
12:00 PM52 °FSunny.17 mph22%30.24 "Hg30 mi
11:00 AM50 °FSunny.15 mph25%30.25 "Hg30 mi
10:00 AM48 °FSunny.14 mph25%30.24 "Hg30 mi
9:00 AM46 °FSunny.14 mph27%30.25 "Hg30 mi
8:00 AM43 °FSunny.10 mph31%30.22 "Hg30 mi
7:00 AM43 °FSunny.12 mph31%30.20 "Hg30 mi
6:00 AM43 °FClear.15 mph31%30.19 "Hg30 mi
5:00 AM43 °FClear.14 mph34%30.16 "Hg15 mi
4:00 AM45 °FClear.21 mph31%30.13 "Hg15 mi
3:00 AM45 °FClear.22 mph34%30.12 "Hg15 mi
2:00 AM45 °FClear.26 mph34%30.11 "Hg15 mi
1:00 AM45 °FClear.31 mph37%30.09 "Hg15 mi
12:00 AM46 °FClear.28 mph34%30.06 "Hg15 mi
11:00 PM
Fri, Feb 27
45 °FClear.15 mph39%30.06 "Hg15 mi
10:00 PM46 °FClear.23 mph37%30.01 "Hg15 mi
9:00 PM46 °FClear.22 mph37%29.98 "Hg15 mi
Weather by CustomWeather, © 2015

See weather overviewHow to use our weather pages